Погода в Тимирязеве

Россия / Ивановская область     57°02′48″N   42°14′02″E
темп.,
°C
ветер,
м/с
пор.,
м/с
влажн.,
%
обл.,
%
осадки,
мм/ч
давл.,
гПа
погр.,
м
19 апреля, пн
пн1900:00+4всв61280100 0.0 1027590
03:00+2всв61076100 0.0 1028473
06:00+1всв61177100 0.0 1028515
09:00+3всв71066100 0.0 1029680
12:00+6в81051100 0.0 10291273
15:00+7в7941100 0.0 10281650
18:00+6в61047100 0.0 10281277
21:00+3всв6135466 0.0 1029484
20 апреля, вт
вт2000:00+1всв613625 0.0 1029424
03:000в613645 0.0 1029398
06:000в6146272 0.0 1028462
09:00+5в7124999 0.0 1028742
12:00+8вюв91244100 0.0 10261403
15:00+10вюв81142100 0.0 10251694
18:00+8вюв7124698 0.0 10231155
21:00+6вюв81547100 0.0 1022896
21 апреля, ср
ср2100:00+4вюв81750100 0.0 1019763
03:00+4вюв91858100 0.2 1015857
06:00+1вюв102197100 3.8 1012885
09:00+2вюв91893100 6.4 1011853
12:00+3вюв91891100 0.1 1009972
15:00+5юв91792100 0.3 10071135
18:00+4ю101694100 0.8 10081119
21:00+4ююз91487100 0.9 10111163
22 апреля, чт
чт2200:00+4ю61286100 0.1 1013860
03:00+4ю41089100 0.1 1015419
06:00+4ю51189100 0.0 1015457
09:00+7ююз71078100 0.1 10161019
12:00+6ююз588314 0.2 1017768
15:00+11ююз7105884 0.4 10171629
18:00+10ююз376914 0.4 1019276
21:00+6ююв388335 0.4 1020119
23 апреля, пт
пт2300:00+5ююв4109520 0.0 1020182
03:00+4ююв389572 0.0 1020146
06:00+5ююв4109467 0.0 1020232
09:00+11ю6107166 0.1 1020542
12:00+15ю8115440 0.7 10201658
15:00+16ю794999 1.0 10182155
18:00+13ююв5105782 0.0 1018504
21:00+11юв61362100 0.0 1017414